STARLINK-4718, 53773

Orbit data source: Space-Track

STARLINK-4718, 53773 is a payload satellite owned by SpaceX/Seattle (US) in LEO that was launched on Sun, 11 Sep 2022 UTC via an FALCON 9 launch vehicle from the Air Force Eastern Test Range (AFETR). Payload-class satellites include a variety of spacecraft equipped with specific instruments for various scientific and technological missions. These include communications satellites like Starlink; space stations such as the ISS; scientific satellites like the Hubble; Earth observation satellites from companies like Planet Labs, Umbra, and HawkEye 360; GPS; miniature CubeSats for education and research; and military/defense satellites.

Loading next visibility...
Identifier
53773, 2022-111A
Orbit
LEO
Country
Flag of USUS
Related business
Manufacturer
SpaceX/Seattle
Mission
Operational Commercial Communications
Bus & Motor
STARLINK, Unknown motor
Mass
305 kg wet, ~290 kg dry
Launch date (UTC)
2022-09-11 (4 years ago)
Launch vehicle
FALCON 9
Launch site
Air Force Eastern Test Range (AFETR)
Object type
Payload
Rocket body
Debris
Shape & HBR
Box + 1 Pan, 10.1 m
Radar Cross Section
13.562 m², Large (>1 m²)

Expand to show TLE details & history
Last TLE update: 18 hours ago

TLE from 18 hours ago
0 STARLINK-4718
1 53773U 22111A   26129.94028733 -.00000901  00000-0 -38556-4 0  9991
2 53773  53.2185   9.0773 0001361  93.8320 266.2827 15.08832500203092
Epoch: 2026-05-09T22:34Z
TLE epoch observation values (Epoch: 2026-05-09T22:34:00.825Z)
Latitude
-0.00008°
Longitude
162.82329°
Altitude
540.725 km
Speed
7.593 km/s
True Right ascension
00h 36m 18s
True Declination
0° 00' 00"
Sunlit
Object was in daylight at epoch
Visualization orbit readout
Latitude
Unknown
Longitude
Unknown
Altitude
Unknown
Speed
Unknown
Apparent Right ascension
Unknown
Apparent Declination
Unknown
Sunlit
N/A
Visualization observer readout
Local Sidereal Time
00:32:41
Azimuth
Unknown
Elevation
Unknown
Doppler factor
Unknown
Orbital elements
Apogee altitude
540.953 km
Perigee altitude
539.07 km
Semi-major axis
6,918.148 km
Eccentricity
0.00014
Inclination
53.2185°
RAAN
9.0773°
Arg. of periapsis
93.832°
True anomaly
266.26714°
Mean anomaly
266.2827°
Eccentric anomaly
266.27492°
Mean motion
3.77188 °/min
Orbital period
95.44 mins
BSTAR
-0.000038556
Loading maneuver chart data...
Computing Atmospheric mass density...
Loading historical data...
Loading historical data...
Loading historical data...
Loading historical data...
Loading historical data...
Loading historical data...
Loading historical data...

Documentation

Showing up to 5 results
|